THY5747 LTBJ-LTFJ

Flight info

Callsign THY5747
Flight time 0h 40m
Altitude 26000
Route BERGO DCT OBIXI
Aircraft B738/M-VW/C

Departure

Time 2026-04-30 08:09
Airport Adnan Menderes International Airport (LTBJ)

Arrival

Time 2026-04-30 08:50
Airport Istanbul Sabiha Gökçen International Airport (LTFJ)
Time Latitude Longitude Altitude Speed Heading
2026-04-30 07:52 38.29201 27.15267 411 ft 0 kts 77°
2026-04-30 08:00 38.29198 27.15250 418 ft 2 kts 77°
2026-04-30 08:00 38.29194 27.15230 407 ft 2 kts 77°
2026-04-30 08:00 38.29190 27.15210 408 ft 2 kts 77°
2026-04-30 08:01 38.29188 27.15189 408 ft 2 kts 103°
2026-04-30 08:01 38.29194 27.15174 412 ft 1 kts 162°
2026-04-30 08:01 38.29200 27.15172 414 ft 0 kts 170°
2026-04-30 08:03 38.29195 27.15173 412 ft 3 kts 169°
2026-04-30 08:03 38.29082 27.15209 416 ft 10 kts 167°
2026-04-30 08:03 38.29019 27.15237 415 ft 10 kts 132°
2026-04-30 08:04 38.28980 27.15303 418 ft 10 kts 158°
2026-04-30 08:04 38.28916 27.15325 417 ft 9 kts 166°
2026-04-30 08:04 38.28853 27.15345 412 ft 10 kts 166°
2026-04-30 08:04 38.28774 27.15367 412 ft 13 kts 167°
2026-04-30 08:05 38.28674 27.15397 415 ft 16 kts 166°
2026-04-30 08:05 38.28568 27.15428 411 ft 15 kts 166°
2026-04-30 08:05 38.28466 27.15460 411 ft 15 kts 166°
2026-04-30 08:05 38.28362 27.15493 413 ft 15 kts 167°
2026-04-30 08:06 38.28262 27.15521 417 ft 14 kts 167°
2026-04-30 08:06 38.28166 27.15550 411 ft 14 kts 167°
2026-04-30 08:06 38.28074 27.15577 413 ft 13 kts 167°
2026-04-30 08:06 38.27986 27.15604 414 ft 13 kts 166°
2026-04-30 08:07 38.27900 27.15630 413 ft 12 kts 167°
2026-04-30 08:07 38.27817 27.15654 409 ft 12 kts 167°
2026-04-30 08:07 38.27760 27.15719 408 ft 12 kts 91°
2026-04-30 08:07 38.27777 27.15821 417 ft 12 kts 76°
2026-04-30 08:08 38.27797 27.15922 409 ft 12 kts 75°
2026-04-30 08:08 38.27817 27.16021 413 ft 11 kts 78°
2026-04-30 08:08 38.27861 27.16095 416 ft 11 kts 14°
2026-04-30 08:08 38.27942 27.16083 411 ft 19 kts 347°
2026-04-30 08:09 38.28291 27.15979 415 ft 85 kts 347°
2026-04-30 08:09 38.29084 27.15742 412 ft 144 kts 347°
2026-04-30 08:09 38.30139 27.15428 770 ft 156 kts 346°
2026-04-30 08:09 38.31233 27.15099 1100 ft 172 kts 347°
2026-04-30 08:10 38.31997 27.14871 1246 ft 165 kts 347°
2026-04-30 08:10 38.33553 27.14414 1931 ft 186 kts 347°
2026-04-30 08:10 38.34876 27.14008 2449 ft 205 kts 343°
2026-04-30 08:10 38.36273 27.13440 2918 ft 216 kts 342°
2026-04-30 08:11 38.37732 27.12819 3390 ft 225 kts 341°
2026-04-30 08:11 38.39222 27.12183 3824 ft 227 kts 343°
2026-04-30 08:11 38.40795 27.11776 4292 ft 235 kts 350°
2026-04-30 08:11 38.42420 27.11469 4666 ft 234 kts 350°
2026-04-30 08:12 38.43482 27.11121 4945 ft 233 kts 343°
2026-04-30 08:12 38.45079 27.10956 5379 ft 236 kts
2026-04-30 08:12 38.46766 27.11116 5877 ft 243 kts
2026-04-30 08:12 38.48423 27.11260 6295 ft 240 kts
2026-04-30 08:13 38.50088 27.11383 6734 ft 239 kts
2026-04-30 08:13 38.51758 27.11488 7190 ft 244 kts
2026-04-30 08:13 38.53484 27.11584 7655 ft 251 kts
2026-04-30 08:13 38.55225 27.11679 8066 ft 249 kts
2026-04-30 08:14 38.56950 27.11755 8483 ft 249 kts
2026-04-30 08:14 38.58696 27.11826 8986 ft 253 kts 360°
2026-04-30 08:14 38.60469 27.11896 9444 ft 256 kts
2026-04-30 08:14 38.62258 27.11964 9919 ft 258 kts 360°
2026-04-30 08:15 38.64059 27.12030 10339 ft 259 kts 360°
2026-04-30 08:15 38.65858 27.12093 10775 ft 258 kts 359°
2026-04-30 08:15 38.67653 27.12156 11215 ft 258 kts 359°
2026-04-30 08:15 38.69452 27.12220 11660 ft 258 kts 359°
2026-04-30 08:16 38.71255 27.12281 12121 ft 259 kts 359°
2026-04-30 08:16 38.73061 27.12344 12567 ft 261 kts 359°
2026-04-30 08:16 38.74880 27.12406 13035 ft 262 kts 359°
2026-04-30 08:16 38.76703 27.12469 13535 ft 269 kts 359°
2026-04-30 08:17 38.78594 27.12535 14000 ft 274 kts 358°
2026-04-30 08:17 38.80495 27.12601 14421 ft 273 kts 358°
2026-04-30 08:17 38.82389 27.12669 14830 ft 271 kts 358°
2026-04-30 08:17 38.84275 27.12735 15281 ft 271 kts 358°
2026-04-30 08:18 38.86158 27.12800 15728 ft 272 kts 357°
2026-04-30 08:18 38.88075 27.12865 16199 ft 278 kts 357°
2026-04-30 08:18 38.90028 27.12932 16667 ft 283 kts 357°
2026-04-30 08:18 38.91996 27.13001 17135 ft 284 kts 357°
2026-04-30 08:19 38.93975 27.13071 17609 ft 284 kts 356°
2026-04-30 08:19 38.95955 27.13140 18081 ft 285 kts 356°
2026-04-30 08:19 38.97936 27.13214 18537 ft 285 kts 358°
2026-04-30 08:19 38.99900 27.13742 18932 ft 293 kts 17°
2026-04-30 08:20 39.01703 27.15044 19377 ft 303 kts 32°
2026-04-30 08:20 39.03397 27.16710 19830 ft 309 kts 34°
2026-04-30 08:20 39.05064 27.18436 20280 ft 314 kts 35°
2026-04-30 08:20 39.06770 27.20225 20732 ft 319 kts 35°
2026-04-30 08:21 39.08496 27.22036 21188 ft 321 kts 35°
2026-04-30 08:21 39.10238 27.23858 21651 ft 323 kts 35°
2026-04-30 08:21 39.11988 27.25682 22114 ft 324 kts 35°
2026-04-30 08:21 39.13748 27.27511 22588 ft 325 kts 34°
2026-04-30 08:22 39.15512 27.29342 23071 ft 326 kts 34°
2026-04-30 08:22 39.17282 27.31177 23568 ft 326 kts 34°
2026-04-30 08:22 39.19052 27.33012 23979 ft 327 kts 34°
2026-04-30 08:22 39.20831 27.34854 24398 ft 328 kts 34°
2026-04-30 08:23 39.22614 27.36701 24829 ft 329 kts 34°
2026-04-30 08:23 39.24401 27.38553 25250 ft 330 kts 34°
2026-04-30 08:23 39.26190 27.40408 25685 ft 330 kts 34°
2026-04-30 08:23 39.27983 27.42268 26053 ft 333 kts 34°
2026-04-30 08:24 39.29823 27.44174 26055 ft 345 kts 34°
2026-04-30 08:24 39.31720 27.46141 26088 ft 353 kts 34°
2026-04-30 08:24 39.33639 27.48136 26077 ft 353 kts 34°
2026-04-30 08:24 39.35543 27.50119 26069 ft 350 kts 34°
2026-04-30 08:25 39.37429 27.52087 26067 ft 347 kts 34°
2026-04-30 08:25 39.39301 27.54040 26064 ft 345 kts 34°
2026-04-30 08:25 39.41163 27.55984 26067 ft 343 kts 35°
2026-04-30 08:25 39.43011 27.57913 26093 ft 342 kts 34°
2026-04-30 08:26 39.44851 27.59832 26092 ft 347 kts 34°
2026-04-30 08:26 39.46744 27.61807 26106 ft 351 kts 34°
2026-04-30 08:26 39.48641 27.63789 26089 ft 349 kts 34°
2026-04-30 08:26 39.50528 27.65764 26087 ft 348 kts 34°
2026-04-30 08:27 39.52407 27.67733 26087 ft 347 kts 34°
2026-04-30 08:27 39.54279 27.69696 26088 ft 346 kts 34°
2026-04-30 08:27 39.56145 27.71653 26093 ft 345 kts 34°
2026-04-30 08:27 39.57998 27.73599 26108 ft 341 kts 34°
2026-04-30 08:28 39.59830 27.75524 26088 ft 336 kts 34°
2026-04-30 08:28 39.61645 27.77432 26103 ft 337 kts 34°
2026-04-30 08:28 39.63470 27.79349 26098 ft 338 kts 34°
2026-04-30 08:28 39.65301 27.81274 26114 ft 339 kts 34°
2026-04-30 08:29 39.67135 27.83204 26095 ft 340 kts 34°
2026-04-30 08:29 39.68972 27.85139 26098 ft 340 kts 34°
2026-04-30 08:29 39.70811 27.87077 26120 ft 340 kts 34°
2026-04-30 08:29 39.72650 27.89017 26100 ft 341 kts 34°
2026-04-30 08:30 39.74494 27.90964 26102 ft 342 kts 34°
2026-04-30 08:30 39.76338 27.92913 26098 ft 342 kts 34°
2026-04-30 08:30 39.78160 27.94840 26099 ft 342 kts 34°
2026-04-30 08:30 39.80005 27.96793 26099 ft 342 kts 34°
2026-04-30 08:31 39.81848 27.98745 26111 ft 342 kts 34°
2026-04-30 08:31 39.83693 28.00700 26100 ft 342 kts 34°
2026-04-30 08:31 39.85536 28.02655 26103 ft 341 kts 34°
2026-04-30 08:31 39.87375 28.04606 26105 ft 341 kts 34°
2026-04-30 08:32 39.89218 28.06563 26101 ft 341 kts 34°
2026-04-30 08:32 39.91061 28.08522 26091 ft 345 kts 34°
2026-04-30 08:32 39.92936 28.10513 26118 ft 351 kts 34°
2026-04-30 08:32 39.94838 28.12534 26114 ft 353 kts 34°
2026-04-30 08:33 39.96731 28.14552 26103 ft 351 kts 34°
2026-04-30 08:33 39.98616 28.16564 26098 ft 349 kts 34°
2026-04-30 08:33 40.00488 28.18563 26101 ft 348 kts 34°
2026-04-30 08:33 40.02357 28.20559 26104 ft 347 kts 34°
2026-04-30 08:34 40.04234 28.22562 25767 ft 355 kts 34°
2026-04-30 08:34 40.06197 28.24652 25006 ft 368 kts 35°
2026-04-30 08:34 40.08184 28.26775 24339 ft 371 kts 35°
2026-04-30 08:34 40.10186 28.28920 23678 ft 374 kts 35°
2026-04-30 08:35 40.12201 28.31080 22900 ft 376 kts 35°
2026-04-30 08:35 40.14227 28.33254 22139 ft 378 kts 35°
2026-04-30 08:35 40.16262 28.35440 21398 ft 379 kts 35°
2026-04-30 08:35 40.18301 28.37633 20677 ft 380 kts 36°
2026-04-30 08:36 40.20340 28.39825 19961 ft 380 kts 36°
2026-04-30 08:36 40.22381 28.42022 19267 ft 380 kts 36°
2026-04-30 08:36 40.24419 28.44217 18591 ft 379 kts 36°
2026-04-30 08:36 40.26455 28.46412 17843 ft 379 kts 36°
2026-04-30 08:37 40.28484 28.48600 17073 ft 377 kts 36°
2026-04-30 08:37 40.30504 28.50781 16344 ft 376 kts 36°
2026-04-30 08:37 40.32515 28.52953 15616 ft 374 kts 37°
2026-04-30 08:37 40.34509 28.55110 14911 ft 371 kts 37°
2026-04-30 08:38 40.36496 28.57259 14223 ft 368 kts 37°
2026-04-30 08:38 40.38456 28.59382 13693 ft 361 kts 37°
2026-04-30 08:38 40.40345 28.61431 13169 ft 353 kts 37°
2026-04-30 08:38 40.42219 28.63465 12642 ft 346 kts 37°
2026-04-30 08:39 40.44063 28.65466 12122 ft 340 kts 37°
2026-04-30 08:39 40.45865 28.67423 11623 ft 334 kts 37°
2026-04-30 08:39 40.47640 28.69352 11125 ft 329 kts 37°
2026-04-30 08:39 40.49389 28.71254 10732 ft 321 kts 37°
2026-04-30 08:40 40.51050 28.73064 10692 ft 301 kts 37°
2026-04-30 08:40 40.52617 28.74774 10611 ft 285 kts 37°
2026-04-30 08:40 40.54100 28.76392 10534 ft 269 kts 37°
2026-04-30 08:40 40.55502 28.77922 10454 ft 254 kts 36°
2026-04-30 08:41 40.56822 28.79363 10373 ft 239 kts 36°
2026-04-30 08:41 40.58071 28.80726 10368 ft 227 kts 36°
2026-04-30 08:41 40.59297 28.82060 10489 ft 238 kts 36°
2026-04-30 08:41 40.60617 28.83492 10522 ft 261 kts 36°
2026-04-30 08:42 40.62064 28.85065 10139 ft 275 kts 37°
2026-04-30 08:42 40.63545 28.86685 9735 ft 278 kts 37°
2026-04-30 08:42 40.65029 28.88312 9302 ft 278 kts 37°
2026-04-30 08:42 40.66518 28.89945 8841 ft 278 kts 37°
2026-04-30 08:43 40.67999 28.91569 8424 ft 277 kts 38°
2026-04-30 08:43 40.69477 28.93192 8012 ft 276 kts 38°
2026-04-30 08:43 40.70948 28.94806 7590 ft 275 kts 38°
2026-04-30 08:43 40.72228 28.96210 7258 ft 273 kts 38°
2026-04-30 08:44 40.73687 28.97812 6847 ft 272 kts 38°
2026-04-30 08:44 40.75143 28.99412 6438 ft 272 kts 39°
2026-04-30 08:44 40.76568 29.00979 6015 ft 262 kts 39°
2026-04-30 08:44 40.77822 29.02634 5658 ft 250 kts 51°
2026-04-30 08:45 40.78869 29.04433 5143 ft 246 kts 53°
2026-04-30 08:45 40.79875 29.06200 4783 ft 236 kts 53°
2026-04-30 08:45 40.80851 29.07889 4416 ft 227 kts 53°
2026-04-30 08:45 40.81793 29.09502 4076 ft 217 kts 54°
2026-04-30 08:46 40.82574 29.11143 3773 ft 205 kts 63°
2026-04-30 08:46 40.83192 29.12776 3477 ft 193 kts 65°
2026-04-30 08:46 40.83759 29.14334 3187 ft 183 kts 64°
2026-04-30 08:46 40.84301 29.15818 2915 ft 176 kts 64°
2026-04-30 08:47 40.84816 29.17224 2671 ft 162 kts 64°
2026-04-30 08:47 40.85281 29.18492 2394 ft 147 kts 63°
2026-04-30 08:47 40.85708 29.19657 2167 ft 136 kts 61°
2026-04-30 08:47 40.86120 29.20774 2009 ft 141 kts 62°
2026-04-30 08:48 40.86563 29.21978 1753 ft 147 kts 61°
2026-04-30 08:48 40.86995 29.23159 1520 ft 137 kts 61°
2026-04-30 08:48 40.87403 29.24267 1304 ft 134 kts 61°
2026-04-30 08:48 40.87824 29.25408 1087 ft 143 kts 62°
2026-04-30 08:49 40.88248 29.26562 777 ft 138 kts 62°
2026-04-30 08:49 40.88662 29.27674 602 ft 135 kts 60°
2026-04-30 08:49 40.89072 29.28775 432 ft 134 kts 62°
2026-04-30 08:49 40.89459 29.29852 351 ft 123 kts 60°
2026-04-30 08:50 40.89784 29.30721 321 ft 61 kts 63°
2026-04-30 08:50 40.89896 29.31027 318 ft 18 kts 63°
2026-04-30 08:50 40.89955 29.31169 318 ft 17 kts 54°
2026-04-30 08:50 40.90045 29.31272 320 ft 17 kts 32°
2026-04-30 08:51 40.90142 29.31354 320 ft 16 kts 34°
2026-04-30 08:51 40.90231 29.31438 318 ft 14 kts 38°
2026-04-30 08:51 40.90304 29.31496 320 ft 12 kts
2026-04-30 08:51 40.90381 29.31457 320 ft 12 kts 334°
2026-04-30 08:52 40.90440 29.31429 320 ft 7 kts 354°
2026-04-30 08:52 40.90485 29.31421 319 ft 7 kts 334°
2026-04-30 08:52 40.90526 29.31395 320 ft 7 kts 335°
2026-04-30 08:52 40.90538 29.31387 320 ft 0 kts 333°